TimeCDT,TemperatureF,Dew PointF,Humidity,Sea Level PressureIn,VisibilityMPH,Wind Direction,Wind SpeedMPH,Gust SpeedMPH,PrecipitationIn,Events,Conditions,WindDirDegrees,DateUTC
12:52 AM,51.1,48.0,89,29.90,-9999.0,Calm,Calm,-,N/A,,Unknown,0,2012-10-03 05:52:00
1:52 AM,50.0,46.9,89,29.91,-9999.0,Calm,Calm,-,N/A,,Unknown,0,2012-10-03 06:52:00
2:52 AM,50.0,46.9,89,29.91,-9999.0,Calm,Calm,-,N/A,,Unknown,0,2012-10-03 07:52:00
3:52 AM,48.9,46.0,90,29.92,-9999.0,Calm,Calm,-,N/A,,Unknown,0,2012-10-03 08:52:00
4:52 AM,48.0,45.0,89,29.92,-9999.0,Calm,Calm,-,N/A,,Unknown,0,2012-10-03 09:52:00
5:52 AM,46.9,44.1,90,29.94,-9999.0,Calm,Calm,-,N/A,,Unknown,0,2012-10-03 10:52:00
6:52 AM,46.9,44.1,90,29.96,-9999.0,Calm,Calm,-,N/A,,Unknown,0,2012-10-03 11:52:00
7:52 AM,48.0,45.0,89,29.97,-9999.0,Calm,Calm,-,N/A,,Unknown,0,2012-10-03 12:52:00
8:52 AM,54.0,48.9,83,29.98,-9999.0,Calm,Calm,-,N/A,,Unknown,0,2012-10-03 13:52:00
9:52 AM,63.0,51.1,65,29.98,-9999.0,WSW,3.5,-,N/A,,Unknown,240,2012-10-03 14:52:00
10:52 AM,69.1,48.9,49,29.97,-9999.0,Variable,3.5,-,N/A,,Unknown,0,2012-10-03 15:52:00
11:52 AM,73.9,45.0,35,29.96,-9999.0,WSW,4.6,-,N/A,,Unknown,240,2012-10-03 16:52:00
12:52 PM,75.0,45.0,34,29.94,-9999.0,South,6.9,-,N/A,,Unknown,170,2012-10-03 17:52:00
1:52 PM,77.0,46.0,33,29.91,-9999.0,South,8.1,-,N/A,,Unknown,180,2012-10-03 18:52:00
2:52 PM,77.0,44.1,31,29.90,-9999.0,SW,8.1,18.4,N/A,,Unknown,220,2012-10-03 19:52:00
3:52 PM,77.0,44.1,31,29.89,-9999.0,SSE,9.2,-,N/A,,Unknown,160,2012-10-03 20:52:00
4:52 PM,77.0,46.0,33,29.89,-9999.0,South,9.2,16.1,N/A,,Unknown,170,2012-10-03 21:52:00
5:52 PM,75.0,46.9,37,29.91,-9999.0,South,10.4,-,N/A,,Unknown,180,2012-10-03 22:52:00
6:52 PM,70.0,46.0,42,29.92,-9999.0,South,4.6,-,N/A,,Unknown,190,2012-10-03 23:52:00
7:52 PM,62.1,48.9,62,29.95,-9999.0,Calm,Calm,-,N/A,,Unknown,0,2012-10-04 00:52:00
8:52 PM,59.0,48.9,69,29.96,-9999.0,South,3.5,-,N/A,,Unknown,170,2012-10-04 01:52:00
9:52 PM,60.1,48.0,64,29.97,-9999.0,Calm,Calm,-,N/A,,Unknown,0,2012-10-04 02:52:00
10:52 PM,57.0,48.9,74,29.97,-9999.0,SSE,3.5,-,N/A,,Unknown,150,2012-10-04 03:52:00
11:52 PM,57.9,46.9,67,29.98,-9999.0,SSE,3.5,-,N/A,,Unknown,150,2012-10-04 04:52:00